Budapest Ferihegy, Hungary

2:50 PM CET on December 11, 2017 (GMT +0100)
Ferihegy

Weather History for LHBP - March, 2013

Change the Weather History Date:

Friday, March 15, 2013

  Actual Average Record
Temperature  
Mean Temperature 28 °F -  
Max Temperature 32 °F 54 °F 66 °F (2002)
Min Temperature 24 °F 34 °F 24 °F (2005)
Degree Days  
Heating Degree Days 37    
Moisture  
Dew Point 22 °F    
Average Humidity 81    
Maximum Humidity 100    
Minimum Humidity 51    
Precipitation  
Precipitation 0.00 in - - ()
Sea Level Pressure  
Sea Level Pressure 29.54 in    
Wind  
Wind Speed 16 mph ()    
Max Wind Speed 23 mph    
Max Gust Speed 29 mph    
Visibility 3.2 miles    
Events Snow    
Averages and records for this station are not official NWS values.
T = Trace of Precipitation, MM = Missing Value Source: Averaged Metar Reports

Daily Weather History Graph

Daily Weather History Graph

Search for Another Location

Airport or City:

Trip Planner

Search our weather history database for the weather conditions in past years. The results will help you decide how hot, cold, wet, or windy it might be!

Date:

Astronomy

Mar. 15, 2013 Rise Set
Actual Time 5:55 AM CET 5:48 PM CET
Civil Twilight 5:25 AM CET 6:19 PM CET
Nautical Twilight 4:49 AM CET 6:54 PM CET
Astronomical Twilight 4:13 AM CET 7:31 PM CET
Moon 7:17 AM CET (3/15) 10:04 PM CET (3/15)
Length of Visible Light 12h 53m
Length of Day
11h 52m
Waxing Crescent, 14% of the Moon is Illuminated
Mar 15
Waxing Crescent
Mar 19
First Quarter
Mar 27
Full
Apr 3
Last Quarter
Apr 10
New

Hourly Weather History & Observations

Time (CET) Temp. Windchill Dew Point Humidity Pressure Visibility Wind Dir Wind Speed Gust Speed Precip Events Conditions
12:00 AM 28.4 °F 15.4 °F 28.4 °F 100% 29.27 in 0.6 mi NW 19.6 mph - N/A Snow Snow
12:30 AM 28.4 °F 17.0 °F 28.4 °F 100% 29.27 in 0.7 mi NW 15.0 mph - N/A Snow Snow
1:00 AM 26.6 °F 13.1 °F 26.6 °F 100% 29.27 in 0.7 mi NW 19.6 mph - N/A Snow Snow
1:30 AM 26.6 °F 14.7 °F 26.6 °F 100% 29.27 in 0.7 mi NW 15.0 mph - N/A Snow Snow
2:00 AM 26.6 °F 15.2 °F 24.8 °F 93% 29.27 in 0.7 mi WNW 13.8 mph - N/A Snow Snow
2:30 AM 24.8 °F 11.9 °F 24.8 °F 100% 29.27 in 0.7 mi WNW 16.1 mph - N/A Snow Snow
3:00 AM 24.8 °F 11.5 °F 24.8 °F 100% 29.27 in 0.7 mi WNW 17.3 mph - N/A Snow Snow
3:30 AM 24.8 °F 11.5 °F 24.8 °F 100% 29.27 in 0.7 mi WNW 17.3 mph - N/A Snow Snow
4:00 AM 24.8 °F 11.5 °F 23.0 °F 93% 29.27 in 0.9 mi WNW 17.3 mph - N/A Snow Light Snow
4:30 AM 24.8 °F 11.1 °F 23.0 °F 93% 29.30 in 0.9 mi WNW 18.4 mph - N/A Snow Light Snow
5:00 AM 24.8 °F 10.7 °F 23.0 °F 93% 29.30 in 0.6 mi WNW 19.6 mph - N/A Snow Snow
5:30 AM 24.8 °F 10.0 °F 23.0 °F 93% 29.30 in 0.6 mi WNW 21.9 mph - N/A Snow Snow
6:00 AM 24.8 °F 10.3 °F 23.0 °F 93% 29.33 in 0.9 mi WNW 20.7 mph - N/A Snow Light Snow
6:30 AM 24.8 °F 10.7 °F 24.8 °F 100% 29.33 in 0.9 mi WNW 19.6 mph - N/A Snow Light Snow
7:00 AM 24.8 °F 10.7 °F 24.8 °F 100% 29.33 in 0.9 mi WNW 19.6 mph - N/A Snow Light Snow
7:30 AM 24.8 °F 10.7 °F 24.8 °F 100% 29.36 in 0.9 mi WNW 19.6 mph - N/A Snow Light Snow
8:00 AM 24.8 °F 10.7 °F 24.8 °F 100% 29.39 in 0.9 mi WNW 19.6 mph - N/A Snow Light Snow
8:30 AM 24.8 °F 9.6 °F 23.0 °F 93% 29.39 in 0.9 mi WNW 23.0 mph - N/A Snow Light Snow
9:00 AM 24.8 °F 10.0 °F 24.8 °F 100% 29.42 in 1.0 mi WNW 21.9 mph - N/A Snow Light Snow
9:30 AM 24.8 °F 10.0 °F 24.8 °F 100% 29.44 in 0.9 mi WNW 21.9 mph - N/A Snow Light Snow
10:00 AM 26.6 °F 12.7 °F 24.8 °F 93% 29.44 in 0.7 mi WNW 20.7 mph - N/A Snow Light Snow
10:30 AM 26.6 °F 12.0 °F 26.6 °F 100% 29.47 in 0.7 mi WNW 23.0 mph - N/A Snow Light Snow
11:00 AM 26.6 °F 13.4 °F 26.6 °F 100% 29.50 in - WNW 18.4 mph - N/A Snow Light Snow
11:30 AM 28.4 °F 15.1 °F 24.8 °F 86% 29.53 in - NW 20.7 mph - N/A Snow Light Snow
12:00 PM 28.4 °F 15.1 °F 24.8 °F 86% 29.56 in - NW 20.7 mph - N/A Snow Light Snow
12:30 PM 28.4 °F 15.8 °F 24.8 °F 86% 29.56 in - NW 18.4 mph - N/A Snow Light Snow
1:00 PM 28.4 °F 15.8 °F 24.8 °F 86% 29.59 in - NW 18.4 mph - N/A Snow Light Snow
1:30 PM 30.2 °F 17.4 °F 24.8 °F 80% 29.59 in 2.2 mi NW 20.7 mph - N/A Snow Light Snow
2:00 PM 30.2 °F 18.1 °F 23.0 °F 75% 29.62 in 3.7 mi NW 18.4 mph - N/A Snow Light Snow
2:30 PM 30.2 °F 17.4 °F 21.2 °F 69% 29.62 in 3.7 mi NW 20.7 mph - N/A Snow Low Drifting Snow
3:00 PM 30.2 °F 17.8 °F 19.4 °F 64% 29.65 in 5.0 mi NW 19.6 mph - N/A Snow Low Drifting Snow
3:30 PM 32.0 °F 21.2 °F 19.4 °F 60% 29.65 in 6.2 mi NW 16.1 mph - N/A Snow Low Drifting Snow
4:00 PM 32.0 °F 20.8 °F 17.6 °F 55% 29.68 in 6.2 mi NW 17.3 mph 28.8 mph N/A Snow Low Drifting Snow
4:30 PM 32.0 °F 20.5 °F 15.8 °F 51% 29.71 in 6.2 mi NW 18.4 mph - N/A   Mostly Cloudy
5:00 PM 32.0 °F 20.1 °F 15.8 °F 51% 29.71 in 6.2 mi NW 19.6 mph - N/A   Mostly Cloudy
5:30 PM 30.2 °F 19.3 °F 17.6 °F 60% 29.74 in 6.2 mi NW 15.0 mph - N/A   Mostly Cloudy
6:00 PM 30.2 °F 19.8 °F 17.6 °F 60% 29.74 in 6.2 mi NW 13.8 mph - N/A   Mostly Cloudy
6:30 PM 30.2 °F 19.3 °F 17.6 °F 60% 29.77 in 6.2 mi NW 15.0 mph - N/A   Mostly Cloudy
7:00 PM 30.2 °F 21.3 °F 15.8 °F 55% 29.80 in 6.2 mi NW 10.4 mph - N/A   Mostly Cloudy
7:30 PM 30.2 °F 21.9 °F 15.8 °F 55% 29.80 in 6.2 mi NW 9.2 mph - N/A   Mostly Cloudy
8:00 PM 30.2 °F 21.9 °F 17.6 °F 60% 29.83 in 6.2 mi NW 9.2 mph - N/A   Mostly Cloudy
8:30 PM 30.2 °F 22.6 °F 17.6 °F 60% 29.83 in 6.2 mi NW 8.1 mph - N/A   Mostly Cloudy
9:00 PM 30.2 °F 23.4 °F 19.4 °F 64% 29.83 in 6.2 mi WNW 6.9 mph - N/A   Mostly Cloudy
9:30 PM 28.4 °F 21.2 °F 17.6 °F 64% 29.86 in 6.2 mi NW 6.9 mph - N/A   Mostly Cloudy
10:00 PM 30.2 °F 20.8 °F 15.8 °F 55% 29.86 in 6.2 mi NW 11.5 mph - N/A   Mostly Cloudy
10:30 PM 28.4 °F 18.0 °F 19.4 °F 69% 29.89 in 6.2 mi WNW 12.7 mph - N/A   Mostly Cloudy
11:00 PM 30.2 °F 21.3 °F 19.4 °F 64% 29.89 in 6.2 mi NW 10.4 mph - N/A   Mostly Cloudy
11:30 PM 28.4 °F 19.7 °F 19.4 °F 69% 29.89 in 6.2 mi NW 9.2 mph - N/A   Mostly Cloudy